Find Starlink 36997

NORAD ID: 68248 Int'l Des: 2026-054 Owner: SPXS Country: US Constellation: starlink operational
LEOCIRCULAR

現在のビュー

3D地球を読み込み中...

About Starlink 36997

Starlink 36997 (NORAD 68248) is a starlink constellation satellite (v2 mini) launched Mar 17, 2026 by SPXS of US. It operates in LEO, CIRCULAR orbit with a mass of 575.00 kg.

Starlink 36997について

説明を読み込み中...

次回通過

Passes for default location (London). Set your location on the main map for personalized predictions.

高度履歴

Loading altitude history...

軌道要素

1 68248U 26054S 26167.39999882 .00008925 00000-0 31309-3 0 9997
2 68248 53.1569 198.4985 0001028 82.5632 277.5486 15.30198523 14102
Epoch: Jun 16, 2026 • Age: 8 hours

現在のステータス

高度 492.4 km
速度 7.62 km/s
衛星直下点 -48.23°S, 21.58°W
打ち上げ日 Mar 17, 2026
運用期間 0.2 years
タイプ internet

技術仕様

分類 Payload
質量 575.00 kg
乾燥質量 530.00 kg
総質量 575.00 kg
長さ 0.30 m
直径 4.10 m
スパン 29.00 m
形状 Box + pan
製造者 SPXS
バスタイプ Starlink V2MO
フェーズステータス In Orbit
所有者/国 SPXS/US

Most Searched